Regional Weather Roundup
Issued by NWS

Home | Current Version | Previous Version | Graphics & Text | Print | Product List | Glossary On
Versions: 1 2 3 4 5 6 7 8 9 10 11 12 13 14 15 16 17 18 19 20 21 22 23 24 25 26 27 28 29 30 31 32 33 34 35 36 37 38 39 40 41 42 43 44 45 46 47 48 49 50
000
ASUS45 KSLC 200510
RWRUT

UTAH REGIONAL WEATHER ROUNDUP
NATIONAL WEATHER SERVICE SALT LAKE CITY UT
1100 PM MDT FRI SEP 19 2014

UTZ001>011-023>025-200600-

NORTHERN UTAH

CITY           SKY/WX    TMP DP  RH WIND       PRES   REMARKS
HILL AFB       CLEAR     68  44  42 SE9       30.11R
LOGAN          CLEAR     59  54  83 CALM      30.12R
OGDEN          CLEAR     65  44  46 S5        30.08R
PROVO AIRPORT  CLEAR     66  54  63 SE5       30.10R
SALT LAKE CITY PTCLDY    67  54  63 SE5       30.07R
VERNAL         CLEAR     66  47  50 MISG      30.11R
WENDOVER       CLEAR     68  43  40 CALM      30.08R
HEBER CITY     CLEAR     55  50  82 CALM      30.17R
WEST JORDAN    CLEAR     64  45  48 CALM      30.10R

$$

UTZ012>022-026-027-200600-

SOUTHERN UTAH

CITY           SKY/WX    TMP DP  RH WIND       PRES   REMARKS
BRYCE CANYON   CLEAR     53  45  74 W5        30.27R
CEDAR CITY     CLEAR     63  46  54 CALM      30.12R
MILFORD        CLEAR     67  41  38 NW8       30.07R
MOAB/CYNLANDS  CLEAR     69  37  30 W6        29.99R
PRICE          CLEAR     69  44  40 CALM      30.14R
ST GEORGE      CLEAR     82  46  28 SW3       29.92S
KANAB            N/A     73  46  38 N8        30.08R

$$

REGIONAL REPORTS     COLORADO/ARIZONA

CITY           SKY/WX    TMP DP  RH WIND       PRES   REMARKS
CRAIG, CO      PTCLDY    54  45  71 CALM      30.19R
GRAND JUNCTION CLEAR     67  45  45 VRB3      30.04R
RIFLE          CLEAR     63  44  50 SE6       30.11R
MONTROSE       CLEAR     64  46  52 SE9       30.12R
CORTEZ         CLEAR     58  48  69 E6        30.11R
PAGE, AZ       CLEAR     81  50  33 SW6       29.98S
GRAND CANYON   CLEAR     55  53  93 CALM      30.20R
KINGMAN        PTCLDY    71  47  42 S3        29.98R
FLAGSTAFF        N/A     52  50  93 CALM      30.23S

$$

REGIONAL REPORTS    NEVADA/IDAHO/WYOMING

CITY           SKY/WX    TMP DP  RH WIND       PRES   REMARKS
LAS VEGAS, NV  CLEAR     86  32  14 S7        29.83R
ELY            CLEAR     57  34  41 S8        30.18R
ELKO           CLEAR     67  38  34 NE12      30.11R
POCATELLO, ID  CLEAR     60  45  57 S9        30.13R
BURLEY         CLEAR     55  45  68 CALM      30.10R
EVANSTON, WY   CLEAR     59  36  42 N7        30.27R
ROCK SPRINGS   CLEAR     58  33  39 NW9       30.23

$$


USA.gov is the U.S. government's official web portal to all federal, state and local government web resources and services.